Temperature
13 13 13 13 13 13 13 13 13 14 14 14 14 14 14 14 14 14 14 14 14 14 14 15 14 15 15 15 15 15 15 15 14 15 15 15 15 15 15 14 14 14 14
13 13 13 13 13 13 13 13 13 13 13 14 14 14 14 14 14 14 14 14 14 14 14 14 14 14 14 14 15 14 14 14 14 14 14 14 14 14 14 14 14 14 14
13 13 13 13 13 13 13 13 13 13 13 13 13 13 14 14 14 14 14 14 14 14 14 14 14 14 14 14 14 14 14 14 14 14 14 14 14 14 14 14 14 14 14
12 12 13 12 12 13 13 13 13 13 13 13 13 13 13 13 14 14 14 14 13 13 14 14 14 14 14 14 14 14 14 14 13 13 13 14 14 13 14 14 14 14 14
12 12 12 12 12 12 12 12 12 13 13 13 13 13 13 13 13 13 13 13 13 13 13 13 13 14 14 14 14 14 13 13 13 13 13 13 13 13 13 13 13 13 13
12 12 12 12 12 12 12 12 12 12 12 13 13 13 13 13 13 13 13 13 13 13 13 13 13 13 13 13 13 13 13 13 13 13 13 13 13 13 13 13 13 13 13
11 11 12 12 12 12 12 12 12 12 12 12 12 12 12 12 12 12 12 13 13 13 13 13 13 13 13 13 13 13 13 12 12 12 12 12 13 13 13 13 13 13 13
11 11 11 11 11 11 12 12 12 12 12 12 12 12 12 12 12 12 12 12 12 12 12 13 13 13 13 13 13 12 12 12 12 12 12 12 12 12 12 12 12 12 12
10 11 11 11 11 11 11 11 11 11 11 11 11 11 12 12 12 12 12 12 12 12 12 12 12 12 12 12 12 12 12 12 12 12 12 12 12 12 12 12 12 12 12
10 10 11 11 11 11 11 11 11 11 11 11 11 11 11 11 11 11 11 11 11 11 12 12 12 12 12 12 12 12 12 12 12 12 12 12 12 12 12 12 12 12 12
10 10 10 10 10 10 10 10 10 10 10 11 11 11 11 11 11 11 11 11 11 11 11 11 11 12 12 12 11 11 11 11 11 12 12 12 12 12 12 12 12 12 12
9 9 10 10 10 10 10 10 10 10 10 10 10 10 10 10 10 10 11 11 11 11 11 11 11 11 11 11 11 11 11 11 11 11 11 11 11 11 11 11 11 11 12
9 9 9 9 9 9 9 10 10 10 10 10 10 10 10 10 10 10 10 10 10 10 10 10 10 11 11 11 11 11 11 10 11 11 11 11 11 11 11 11 11 11 11
8 9 9 9 9 9 9 9 9 9 9 9 10 10 9 9 9 10 10 10 10 10 10 10 10 10 10 11 10 10 10 10 10 10 11 11 11 11 11 11 11 11 11
8 8 9 9 9 9 9 9 9 9 9 9 9 9 9 9 9 9 9 9 9 9 9 9 9 10 10 10 10 10 10 10 10 10 10 10 10 11 11 11 11 11 10
8 8 8 8 8 8 8 8 8 8 8 8 8 9 9 9 9 9 9 9 9 9 9 9 9 9 9 10 10 10 10 9 9 10 10 10 10 10 10 10 10 10 10
7 7 8 8 8 8 8 8 8 8 8 8 8 8 8 8 8 8 8 8 8 8 8 9 9 9 9 9 9 9 9 9 9 9 9 9 10 10 10 10 10 10 10
7 7 7 7 7 7 7 7 7 7 7 7 7 8 8 8 8 8 8 8 8 8 8 8 8 8 8 8 8 9 9 9 9 9 9 9 9 9 9 9 9 9 9
6 6 6 6 7 7 7 7 7 7 7 7 7 7 7 7 7 7 7 7 7 7 8 8 8 8 8 8 8 8 8 8 8 8 8 8 9 9 9 9 9 8 8
5 6 6 6 6 6 6 6 6 7 6 6 6 6 6 6 6 6 7 7 7 7 7 7 7 7 7 7 7 7 8 8 8 8 8 8 8 8 8 8 8 8 8
5 5 5 5 5 5 5 6 6 6 6 6 6 6 6 6 6 6 6 6 6 6 6 6 6 6 6 6 7 7 7 7 7 7 7 7 7 7 7 7 7 8 8
4 4 5 5 5 5 5 5 5 5 5 5 5 5 5 5 5 5 6 6 6 6 6 6 6 6 6 6 6 5 5 6 6 6 6 7 7 7 7 7 7 7 7
4 4 4 4 4 4 4 5 4 4 4 5 5 5 4 4 4 5 5 5 5 5 5 5 5 5 5 5 5 5 5 5 5 5 6 6 6 6 6 6 6 6 6
4 3 4 4 4 4 4 4 4 4 4 4 4 4 4 4 4 4 4 4 5 5 5 5 5 5 5 5 4 4 4 4 4 4 5 5 5 5 5 5 5 6 6
3 3 3 3 3 3 3 3 3 3 3 3 3 3 4 4 3 3 3 4 4 4 4 4 4 4 4 4 4 4 4 4 4 4 4 4 4 5 5 5 5 5 5
2 2 3 2 2 3 2 2 2 3 3 3 3 3 3 3 3 3 3 3 3 3 3 3 3 3 3 3 3 3 4 3 3 3 3 3 4 4 4 4 4 4 4
Wind_Speed
5 7 7 7 8 8 9 9 9 9 10 10 10 11 11 12 12 13 13 12 12 13 13 14 14 14 14 15 15 15 15 15 15 15 16 16 16 16 16 15 15 15 16
6 8 8 7 8 8 9 9 9 9 9 9 10 10 10 11 11 12 12 12 12 13 13 13 14 14 14 14 14 14 13 12 12 13 14 15 15 16 16 16 15 14 16
7 9 9 7 8 8 9 9 9 9 9 9 9 9 10 10 10 11 11 12 12 12 12 13 13 13 14 13 13 12 11 10 10 11 12 12 13 15 15 15 15 16 15
7 9 8 8 8 8 9 9 9 9 8 8 9 9 9 9 10 10 11 11 11 11 12 12 12 13 13 12 12 11 10 9 9 10 11 12 12 14 14 14 15 15 15
7 9 9 8 8 8 8 9 9 9 8 8 8 9 9 9 10 10 10 10 10 10 11 11 11 12 12 11 11 10 9 10 10 10 12 13 12 13 14 14 14 15 15
7 9 9 8 7 7 8 8 8 8 8 8 8 8 8 8 9 9 9 9 10 10 10 10 10 11 11 10 9 9 8 9 9 10 12 12 11 12 13 13 13 13 14
7 9 9 8 7 7 7 7 7 7 7 7 7 7 7 8 8 8 8 9 9 9 9 9 10 9 10 9 9 8 8 8 8 10 11 11 10 11 11 11 12 12 13
7 8 8 8 8 7 7 7 6 6 6 6 6 6 7 7 7 7 8 8 8 8 8 8 9 9 9 8 8 7 8 7 7 9 11 10 10 10 10 10 11 11 11
8 8 7 7 7 7 7 6 6 5 6 5 5 6 6 6 7 7 7 7 7 8 8 8 8 7 7 7 6 6 7 8 8 8 9 9 9 10 10 10 10 10 10
7 7 6 6 6 6 5 6 6 5 5 5 5 6 6 6 7 7 6 6 6 7 7 7 7 6 5 5 5 5 6 7 8 9 8 9 9 9 9 9 9 8 8
5 5 5 5 5 5 4 4 5 5 5 6 5 5 5 5 5 5 5 5 5 5 6 6 6 5 4 3 3 4 5 6 8 8 8 9 9 8 8 8 8 8 7
4 4 4 5 4 3 3 3 3 3 4 4 5 4 3 4 4 4 5 5 4 5 5 4 4 3 3 3 3 4 4 6 7 7 8 9 8 8 8 7 7 7 8
3 3 4 4 4 4 3 2 2 3 3 3 4 4 3 3 3 4 4 4 4 4 3 3 3 3 3 3 4 4 4 5 6 7 7 8 8 8 8 7 7 7 7
2 2 3 4 4 4 4 2 2 2 2 3 3 3 3 3 3 3 3 3 3 2 2 2 2 2 3 3 3 4 4 4 6 6 6 7 7 6 7 7 7 7 6
2 2 2 3 3 3 3 3 2 2 2 3 3 2 3 3 3 3 3 2 2 2 2 1 2 2 3 3 3 3 3 4 5 6 6 7 6 6 6 6 6 6 7
1 1 2 2 3 3 3 3 3 3 2 3 4 3 3 3 3 3 3 3 2 2 1 1 2 2 2 2 3 3 3 4 5 6 5 5 5 5 5 4 5 6 6
1 1 1 1 3 3 3 3 3 3 3 3 3 3 3 4 3 3 2 2 2 2 1 1 2 2 2 3 3 3 3 4 4 4 5 5 4 4 5 5 5 6 6
1 1 1 1 2 3 3 3 3 3 3 4 4 4 3 3 3 3 2 1 2 2 1 1 1 1 1 2 2 2 2 3 3 3 4 4 4 4 4 5 6 6 7
2 1 1 2 2 2 2 2 2 2 3 3 4 4 4 3 3 3 2 2 1 1 1 1 1 1 1 1 1 2 2 2 2 2 3 4 4 5 4 4 5 5 6
2 2 1 2 2 2 2 2 1 2 2 3 3 4 3 3 3 3 2 2 1 1 1 1 1 2 1 1 1 1 1 1 2 2 2 3 4 4 5 4 4 4 5
2 2 1 2 1 1 1 1 0 0 1 1 2 3 3 2 3 3 2 2 1 1 1 1 2 2 1 1 2 1 1 1 1 1 2 3 3 4 4 4 4 4 3
2 2 2 2 1 1 0 0 0 0 0 1 1 2 2 2 2 2 2 1 1 1 2 2 2 1 1 1 1 1 0 1 1 0 1 1 2 3 3 3 3 3 3
2 2 1 1 1 1 1 1 1 1 1 0 0 0 1 1 2 2 2 2 1 2 2 2 2 2 2 1 1 1 1 1 0 0 1 1 1 2 2 2 2 2 3
2 2 1 1 1 1 1 1 1 1 1 1 1 0 0 1 2 2 2 1 1 1 2 2 2 2 2 2 1 0 1 1 1 0 1 1 1 1 1 1 1 1 2
2 2 2 2 1 1 1 1 1 1 0 0 0 1 1 1 1 1 1 1 1 1 1 2 2 2 2 2 2 1 0 0 0 1 2 1 1 1 0 0 1 1 1
2 2 2 3 1 1 1 1 1 1 0 0 0 1 1 1 1 1 0 1 1 1 1 1 2 2 2 2 1 1 1 1 1 1 2 1 1 1 1 1 1 1 1
Wind_Direction
93 102 119 109 105 103 97 95 92 88 85 81 76 73 70 68 67 65 64 66 67 69 69 69 68 68 71 71 68 66 67 70 73 73 72 72 74 75 74 72 73 74 75
104 110 121 112 106 102 98 96 92 88 86 84 79 76 73 72 69 67 64 65 69 69 69 69 69 68 69 71 71 68 67 67 71 75 75 70 72 76 75 73 74 76 74
99 110 119 112 106 105 101 97 94 90 86 84 82 80 77 76 72 69 66 66 71 71 69 68 68 67 68 70 70 66 61 59 61 71 76 74 73 75 77 76 75 76 75
95 108 116 112 107 106 103 99 95 92 89 88 85 84 82 78 75 72 69 68 71 73 70 69 68 66 67 69 68 64 54 46 50 66 76 77 76 77 78 78 76 77 75
82 98 106 109 110 109 106 103 99 96 94 90 87 86 86 84 80 75 73 72 71 75 73 70 69 66 66 69 66 60 49 42 48 64 72 74 74 79 78 79 77 77 75
75 92 103 103 104 108 108 107 104 101 95 92 91 89 89 87 83 75 74 73 72 74 76 73 69 67 65 67 63 56 48 47 48 62 69 72 75 82 81 79 80 79 77
72 83 98 98 94 98 105 108 108 105 99 94 96 94 90 88 83 76 72 73 74 73 76 76 69 67 65 66 61 50 46 49 59 67 69 70 76 85 84 81 81 80 79
76 78 91 94 90 89 91 99 108 108 105 97 97 99 95 90 86 80 74 72 75 74 77 78 73 67 61 62 59 49 42 46 58 75 77 74 77 85 85 82 82 84 83
74 76 80 83 88 90 88 88 98 109 105 101 98 99 98 93 88 84 79 75 74 75 78 81 77 69 62 65 60 49 43 48 50 64 77 78 80 84 86 84 84 87 88
62 65 70 79 81 79 82 88 90 100 103 102 99 102 100 93 90 85 81 79 77 77 79 79 77 72 67 66 61 50 46 55 56 59 67 78 85 88 88 85 83 83 90
58 52 53 59 70 80 85 89 96 99 102 102 99 108 111 101 101 96 92 88 86 84 84 82 77 71 70 68 58 58 58 59 62 62 64 77 80 83 87 84 82 80 84
66 50 48 46 50 64 81 94 97 97 101 92 85 86 100 103 106 110 110 105 98 95 95 87 74 62 63 70 68 70 60 61 67 68 68 77 78 77 84 83 84 85 82
85 63 49 42 36 36 56 87 90 91 97 97 93 80 76 89 104 103 100 91 88 87 79 73 69 58 61 75 83 78 68 68 75 79 75 76 77 77 82 81 83 87 87
78 64 53 45 41 32 37 47 77 84 86 82 85 83 70 71 67 77 93 94 87 83 72 53 48 49 54 68 77 83 77 76 78 84 80 78 74 76 82 83 83 83 86
70 56 47 43 44 34 37 32 38 71 91 96 95 87 78 72 64 59 66 86 93 82 70 38 45 42 51 62 61 72 78 86 87 92 87 83 73 68 79 84 87 88 85
75 56 42 34 38 40 41 32 33 49 84 98 94 86 87 78 69 67 60 57 69 79 71 63 56 52 60 67 62 54 57 72 86 93 96 92 79 69 70 84 93 95 93
132 90 48 42 41 41 40 33 36 52 58 79 94 105 94 86 83 82 80 64 47 61 83 81 66 67 65 63 61 59 58 58 65 80 90 94 92 78 70 76 87 94 93
122 100 64 37 47 44 40 31 37 54 58 64 75 87 83 86 85 82 87 84 56 51 50 92 99 74 64 55 51 40 58 62 59 70 84 88 91 90 81 72 70 78 85
113 107 83 60 64 48 46 38 42 60 54 66 64 72 72 72 79 75 81 70 69 68 53 89 97 112 101 71 68 38 42 56 65 67 78 80 88 93 91 89 79 71 78
110 112 108 80 62 56 59 44 43 58 52 68 69 70 66 65 62 66 79 70 58 90 70 55 76 74 95 93 73 50 25 55 78 70 76 77 89 89 83 81 83 79 80
114 112 112 106 88 79 82 77 12 359 352 45 56 71 56 53 63 64 69 97 88 126 140 128 105 95 72 67 68 48 357 26 102 100 84 85 81 86 83 80 74 74 80
143 146 140 133 135 131 108 286 244 320 251 99 55 87 67 45 53 80 75 111 125 131 126 124 112 128 145 114 107 113 217 321 328 253 126 118 95 82 82 89 82 83 86
136 154 149 145 145 127 95 69 75 39 26 42 17 94 57 65 47 52 81 88 135 158 167 164 156 155 171 184 100 130 155 217 267 247 215 171 101 75 71 72 83 85 108
155 148 139 144 138 128 113 140 150 173 215 252 229 189 131 92 78 56 56 83 100 143 162 179 171 175 167 183 213 158 154 128 134 237 282 236 155 99 42 50 64 71 90
151 154 150 142 131 115 128 178 187 221 257 321 127 156 148 128 103 79 59 67 73 96 153 171 171 181 182 180 179 182 123 11 161 178 231 250 273 239 305 13 126 137 103
125 138 146 149 155 137 175 220 205 203 157 8 261 186 169 157 150 106 78 102 82 83 120 172 177 176 179 180 170 159 167 179 202 205 233 241 244 256 256 247 163 143 138
Height
1528 1529 1530 1531 1532 1532 1533 1534 1535 1536 1536 1537 1537 1538 1539 1539 1540 1540 1541 1541 1542 1542 1542 1543 1543 1543 1543 1543 1543 1543 1543 1543 1543 1544 1544 1545 1545 1545 1546 1546 1546 1546 1547
1528 1529 1530 1531 1532 1533 1534 1535 1535 1536 1537 1537 1538 1539 1539 1540 1541 1541 1541 1542 1542 1543 1543 1544 1544 1544 1544 1544 1544 1545 1545 1545 1546 1546 1546 1546 1547 1547 1547 1548 1548 1548 1548
1528 1529 1530 1532 1532 1533 1534 1535 1536 1537 1537 1538 1539 1539 1540 1541 1541 1542 1542 1543 1543 1544 1544 1545 1545 1545 1545 1545 1546 1546 1547 1547 1547 1548 1548 1548 1548 1549 1549 1549 1550 1550 1550
1528 1529 1530 1532 1533 1533 1534 1535 1536 1537 1538 1538 1539 1540 1540 1541 1542 1542 1543 1543 1544 1544 1545 1546 1546 1546 1546 1547 1547 1547 1548 1549 1549 1549 1549 1549 1550 1550 1551 1551 1551 1551 1552
1528 1529 1530 1532 1533 1533 1534 1535 1536 1537 1538 1539 1539 1540 1541 1541 1542 1543 1543 1544 1544 1545 1545 1546 1547 1547 1547 1548 1548 1548 1549 1550 1550 1550 1550 1551 1551 1552 1552 1552 1553 1553 1553
1528 1529 1530 1531 1532 1533 1534 1535 1536 1537 1538 1539 1539 1540 1541 1542 1542 1543 1543 1544 1545 1545 1546 1546 1547 1547 1548 1549 1549 1549 1550 1551 1551 1551 1551 1552 1552 1553 1553 1554 1554 1554 1554
1528 1529 1530 1531 1532 1533 1534 1535 1536 1537 1538 1538 1539 1540 1541 1542 1542 1543 1544 1544 1545 1545 1546 1546 1547 1548 1548 1549 1550 1550 1551 1551 1552 1552 1552 1553 1554 1554 1554 1554 1555 1555 1555
1527 1528 1530 1531 1532 1533 1534 1535 1536 1537 1537 1538 1539 1540 1540 1541 1542 1543 1543 1544 1544 1545 1546 1546 1547 1548 1548 1549 1550 1551 1551 1552 1552 1553 1553 1553 1554 1555 1555 1555 1556 1556 1556
1527 1528 1529 1530 1531 1532 1533 1534 1535 1536 1537 1538 1539 1539 1540 1541 1542 1542 1543 1543 1544 1545 1545 1546 1547 1548 1548 1549 1550 1551 1551 1552 1552 1553 1553 1554 1555 1555 1555 1556 1556 1557 1557
1527 1527 1528 1529 1530 1531 1532 1533 1534 1535 1536 1537 1538 1539 1540 1540 1541 1542 1542 1543 1543 1544 1545 1545 1546 1547 1548 1549 1550 1551 1551 1552 1552 1553 1553 1554 1555 1555 1555 1556 1557 1557 1557
1526 1527 1527 1529 1530 1530 1531 1532 1533 1534 1535 1536 1537 1538 1539 1539 1540 1541 1541 1542 1543 1543 1544 1545 1546 1546 1547 1548 1549 1550 1551 1551 1552 1553 1553 1554 1555 1555 1556 1556 1557 1557 1557
1524 1525 1526 1527 1528 1529 1530 1531 1532 1533 1534 1535 1536 1536 1537 1538 1539 1539 1540 1541 1542 1542 1543 1544 1545 1545 1546 1547 1548 1549 1550 1551 1552 1552 1553 1554 1555 1555 1555 1556 1556 1557 1557
1522 1524 1525 1526 1527 1528 1529 1530 1530 1531 1532 1533 1534 1535 1536 1537 1537 1538 1539 1539 1540 1541 1542 1543 1543 1544 1545 1546 1547 1548 1549 1550 1551 1552 1553 1554 1554 1555 1555 1555 1556 1557 1557
1521 1522 1523 1525 1526 1527 1527 1528 1529 1530 1530 1531 1532 1533 1534 1535 1536 1536 1537 1538 1539 1539 1540 1541 1542 1543 1544 1545 1546 1547 1548 1549 1550 1551 1552 1553 1554 1554 1555 1555 1556 1556 1557
1519 1520 1521 1523 1524 1525 1526 1526 1527 1528 1529 1530 1531 1532 1532 1533 1534 1534 1535 1536 1537 1538 1538 1539 1540 1541 1542 1543 1544 1545 1547 1548 1549 1550 1551 1552 1553 1553 1554 1554 1555 1555 1556
1517 1517 1519 1520 1521 1523 1523 1524 1525 1526 1527 1528 1528 1529 1530 1531 1532 1533 1533 1534 1535 1536 1536 1537 1538 1539 1540 1541 1542 1543 1545 1546 1547 1548 1549 1550 1551 1552 1553 1553 1554 1554 1555
1515 1515 1516 1518 1519 1520 1521 1522 1523 1523 1524 1525 1526 1527 1528 1529 1529 1530 1531 1532 1532 1533 1534 1535 1536 1537 1538 1539 1540 1541 1543 1544 1545 1546 1547 1548 1549 1550 1551 1552 1552 1553 1554
1513 1513 1514 1515 1516 1517 1518 1519 1520 1521 1522 1523 1524 1524 1525 1526 1527 1528 1528 1529 1530 1531 1532 1532 1534 1535 1536 1537 1538 1539 1540 1542 1543 1544 1545 1546 1547 1548 1549 1550 1551 1551 1552
1511 1511 1512 1513 1514 1515 1516 1517 1518 1518 1519 1520 1521 1522 1522 1523 1524 1525 1526 1526 1527 1528 1529 1530 1531 1532 1533 1534 1535 1537 1538 1539 1540 1542 1542 1543 1544 1546 1547 1548 1549 1549 1550
1508 1509 1510 1511 1512 1513 1513 1514 1515 1516 1517 1518 1518 1518 1520 1520 1521 1522 1523 1523 1524 1525 1525 1526 1528 1529 1530 1531 1532 1534 1535 1537 1538 1539 1540 1541 1542 1543 1544 1545 1546 1547 1548
1506 1506 1507 1508 1509 1510 1510 1511 1512 1512 1513 1514 1514 1515 1516 1517 1518 1519 1519 1520 1521 1522 1523 1523 1525 1526 1527 1528 1530 1531 1532 1534 1535 1536 1537 1538 1539 1540 1541 1542 1543 1544 1545
1503 1504 1504 1505 1506 1507 1508 1509 1510 1510 1511 1511 1512 1513 1513 1514 1515 1515 1516 1517 1518 1519 1520 1521 1521 1523 1525 1526 1527 1528 1530 1532 1532 1533 1534 1535 1536 1537 1538 1540 1540 1541 1542
1500 1501 1501 1502 1503 1504 1505 1506 1507 1508 1508 1508 1509 1509 1510 1511 1511 1512 1513 1514 1515 1516 1517 1518 1519 1520 1522 1524 1525 1527 1528 1528 1529 1530 1531 1533 1534 1534 1535 1536 1537 1538 1539
1498 1498 1498 1499 1500 1501 1502 1503 1503 1504 1504 1505 1506 1506 1507 1508 1509 1509 1510 1511 1512 1513 1514 1515 1516 1518 1519 1520 1522 1523 1525 1526 1527 1527 1528 1529 1530 1531 1532 1533 1534 1534 1535
1495 1496 1496 1496 1497 1498 1499 1500 1501 1501 1502 1503 1503 1504 1504 1505 1506 1507 1508 1508 1509 1509 1510 1512 1513 1515 1516 1517 1518 1520 1521 1522 1524 1524 1524 1525 1527 1528 1528 1530 1530 1531 1532
1492 1493 1493 1494 1494 1495 1496 1497 1498 1499 1499 1500 1500 1500 1501 1502 1503 1504 1505 1506 1506 1507 1508 1509 1510 1512 1513 1514 1516 1517 1518 1519 1520 1521 1521 1522 1523 1524 1525 1526 1527 1528 1528